Wind_Speed
20 20 21 21 21 21 21 20 19 19 18 17 16 16 16 16 16 16 16 16 17 18 18 19 20 20 20 19 18 18 17 17 16 15 15 15 15 15 15 15 16 16 16
24 24 24 24 24 23 23 23 22 21 21 20 19 19 19 20 20 19 19 19 19 20 20 21 21 22 21 21 21 20 20 19 19 17 16 16 15 15 16 16 16 16 17
29 28 28 28 27 26 26 26 25 24 24 23 22 22 23 23 24 23 23 22 22 22 22 22 22 23 23 23 23 23 23 22 21 20 19 18 17 16 16 17 17 17 17
34 33 32 32 31 30 30 29 28 28 27 26 25 25 26 26 27 27 27 26 26 25 25 25 25 24 24 25 25 25 25 25 24 23 22 21 19 19 18 18 18 18 18
38 38 37 37 36 34 34 33 31 30 30 29 28 28 28 29 30 31 31 31 30 29 28 28 27 27 26 26 27 27 27 27 27 26 25 24 23 21 20 20 19 20 20
42 43 42 42 40 39 37 36 35 33 32 32 31 31 31 32 33 34 34 34 34 33 32 31 30 29 28 28 28 29 29 29 30 29 28 27 26 24 23 22 21 21 21
44 45 45 45 45 43 42 40 38 36 35 34 33 33 33 34 34 36 37 37 37 36 35 34 33 32 31 30 30 30 31 30 31 31 31 30 29 27 26 24 23 23 23
47 47 48 47 46 44 43 42 40 37 36 35 35 34 34 34 35 36 38 38 39 38 38 36 35 34 33 32 32 32 32 32 32 32 32 32 31 30 29 27 25 25 24
47 48 47 46 46 44 43 42 39 38 36 36 36 35 35 34 35 35 37 39 39 40 39 37 36 35 35 34 34 34 33 34 33 33 33 33 33 33 31 30 28 27 26
46 46 45 45 46 43 41 39 37 37 36 35 35 35 35 35 35 35 36 37 38 39 39 38 37 36 35 35 35 35 35 35 35 35 35 35 35 35 34 32 31 29 28
47 46 44 45 42 40 38 37 35 34 33 33 34 34 35 35 36 36 35 35 36 37 37 37 36 35 34 34 35 34 35 36 36 37 37 36 37 37 36 35 33 31 30
47 47 46 42 37 36 35 33 32 32 32 32 33 34 35 35 36 36 35 34 34 35 35 36 35 34 34 34 34 35 36 36 37 38 39 39 38 38 38 38 36 34 32
45 44 42 38 36 35 33 32 31 31 32 33 34 35 35 36 35 35 34 32 32 32 33 33 33 33 33 34 35 36 37 37 37 38 39 40 40 40 40 40 39 36 34
45 43 41 39 36 34 32 32 32 32 33 34 34 35 35 35 34 33 32 31 30 30 30 31 31 32 33 34 35 36 37 38 38 39 39 40 40 41 41 41 40 39 35
47 44 41 38 36 35 34 34 33 33 34 34 34 34 34 33 32 32 32 31 30 29 29 30 30 30 31 32 34 34 35 37 39 40 40 40 41 40 40 39 39 39 37
47 44 42 39 39 37 35 35 34 34 34 34 33 33 33 32 32 32 32 32 31 30 30 30 31 31 31 31 32 33 34 34 36 38 39 39 39 40 39 37 37 38 37
44 42 40 40 38 37 36 36 35 35 34 33 33 33 32 33 33 33 33 33 33 33 33 32 33 32 32 32 31 31 32 33 34 36 38 38 37 37 37 36 35 36 34
40 40 40 39 37 36 36 35 34 34 33 32 32 32 32 33 33 34 34 35 35 35 35 35 35 35 34 33 32 30 29 29 31 33 34 35 34 34 34 34 33 32 32
35 34 36 37 37 36 35 34 33 32 32 31 31 31 32 33 33 34 35 36 36 36 36 36 36 37 36 35 33 31 30 29 28 28 28 29 30 30 30 30 30 30 31
30 30 32 32 33 33 32 31 31 30 30 30 30 31 32 33 34 34 35 36 37 37 38 38 38 38 37 36 35 33 32 30 29 27 26 26 27 28 27 28 29 29 30
26 27 28 27 27 27 27 27 27 27 28 28 29 30 31 32 33 34 35 36 36 37 37 37 38 38 38 37 36 35 34 33 31 29 27 26 26 26 26 26 27 29 29
21 22 23 23 22 22 23 23 23 24 25 27 27 28 29 30 31 32 33 34 35 36 37 37 38 38 38 38 38 37 36 35 34 33 30 28 26 26 26 25 26 28 29
15 15 16 17 18 19 19 20 21 22 23 24 25 26 26 27 28 29 31 32 33 34 34 36 37 38 38 38 38 37 37 37 36 35 33 31 29 27 26 25 25 28 28
14 14 14 15 16 16 17 18 19 19 20 20 21 21 22 23 25 27 28 29 31 32 33 34 35 36 36 37 37 37 37 37 36 36 35 33 32 31 29 28 27 27 30
13 13 13 13 14 14 15 16 16 16 17 18 18 19 21 23 25 26 27 28 29 30 31 33 34 34 35 35 35 35 36 36 36 36 36 34 33 32 32 31 30 29 30
11 11 11 12 12 13 13 13 14 14 15 15 17 18 20 21 23 24 26 28 29 30 31 31 32 32 33 33 33 33 33 34 34 34 35 35 34 34 33 33 33 33 31
Wind_Direction
283 282 280 278 277 276 275 275 275 277 279 284 290 296 302 306 307 308 310 307 301 297 294 290 286 284 282 280 279 278 276 273 271 271 272 272 272 271 271 271 270 269 268
280 279 277 276 275 273 272 271 270 271 273 277 283 288 293 297 299 302 303 304 302 299 296 293 288 282 279 276 275 274 273 271 269 268 268 268 270 271 271 271 271 269 269
278 276 274 273 272 271 269 268 267 268 269 272 277 282 286 290 293 296 297 299 300 298 296 294 291 285 279 274 272 270 269 268 266 265 265 265 266 268 270 271 271 271 270
276 274 272 271 270 268 267 265 265 265 267 270 273 277 281 284 287 290 293 295 296 296 295 293 291 287 281 275 271 269 267 265 263 262 262 262 263 264 267 269 271 271 272
274 274 273 270 268 266 265 263 262 264 265 268 270 274 277 281 284 287 289 291 293 294 293 292 291 288 284 277 273 269 267 265 262 260 260 260 260 261 263 266 269 271 271
273 274 272 270 267 265 263 261 261 262 263 265 267 271 274 278 281 285 288 290 291 292 291 290 289 287 283 279 274 270 267 265 262 260 259 258 258 258 259 262 265 269 270
272 272 273 271 268 266 262 261 260 259 261 263 266 269 273 276 279 283 287 289 290 290 290 289 287 285 281 278 275 271 268 265 262 259 257 257 256 256 257 258 262 266 269
270 273 274 273 270 266 262 261 261 259 259 262 266 268 270 275 279 283 286 288 289 289 288 287 284 282 280 277 273 270 267 265 263 259 256 255 254 255 255 256 258 263 266
274 274 273 272 271 267 263 262 260 257 258 262 266 269 272 276 279 283 286 287 288 288 287 286 284 282 279 277 273 269 266 264 262 260 258 255 254 253 254 254 256 260 263
278 280 274 271 271 268 265 263 261 258 260 262 267 272 276 280 282 284 286 287 287 287 286 285 284 282 279 276 273 269 264 262 261 259 258 256 253 252 252 253 254 257 260
280 279 276 274 272 265 260 259 258 257 260 265 269 274 279 282 285 287 287 287 286 286 285 285 284 281 278 275 271 268 265 262 260 259 259 257 255 252 251 252 252 254 257
279 278 276 274 266 263 260 257 257 259 263 267 272 276 280 283 285 287 287 286 285 285 284 283 282 281 278 275 271 268 264 262 261 260 260 260 259 257 255 253 251 251 253
277 275 273 269 266 262 259 258 260 263 267 270 274 277 280 282 284 285 285 285 284 283 283 283 282 282 280 277 273 270 266 262 262 260 260 261 261 260 258 255 251 249 250
273 272 269 267 264 260 259 260 262 265 269 272 274 277 279 281 282 283 283 284 283 282 282 282 283 283 281 277 275 272 269 265 263 262 261 261 262 261 260 257 253 249 246
270 268 265 262 257 257 260 262 263 267 271 273 274 276 278 279 280 281 282 282 282 282 281 282 284 284 283 279 277 276 272 268 265 263 262 263 264 263 262 259 255 250 245
264 263 259 256 256 257 259 261 264 268 271 272 274 275 275 276 278 280 281 281 280 281 281 282 284 285 285 283 281 278 275 273 268 264 263 263 264 263 262 259 257 251 246
259 256 255 256 256 257 258 261 264 268 270 271 273 274 274 276 277 278 279 280 280 280 280 281 282 283 284 285 284 282 279 277 271 265 263 263 263 263 261 258 256 252 248
254 254 254 253 253 257 260 262 264 267 269 270 272 273 274 275 276 277 278 279 280 280 280 279 280 280 281 282 282 284 283 281 275 267 264 261 260 260 258 257 253 250 246
251 252 251 251 252 255 259 261 263 265 268 270 272 273 275 276 277 277 278 279 279 279 279 278 278 278 279 280 280 281 281 281 279 272 266 261 259 257 257 254 248 245 244
246 249 249 250 252 254 256 259 262 266 269 271 272 274 276 278 278 279 279 279 280 279 279 278 277 277 277 277 278 278 278 279 276 272 269 264 260 256 254 251 245 241 239
250 250 248 249 250 252 255 260 264 267 269 272 274 277 278 279 280 281 281 281 280 280 280 279 278 277 276 275 275 275 275 275 274 271 269 267 261 255 250 248 242 238 234
249 249 248 248 250 254 258 261 266 268 271 274 277 279 280 282 283 283 283 283 282 282 281 280 279 278 276 275 274 273 272 272 271 268 267 265 262 257 251 248 242 235 231
260 258 255 252 255 257 260 264 267 270 273 276 278 281 283 284 285 286 286 286 286 285 284 283 281 280 278 276 274 273 271 269 268 266 265 263 262 260 255 250 243 236 232
266 265 261 259 261 262 262 264 267 269 273 277 281 284 287 288 290 290 291 290 290 289 287 286 284 282 279 277 274 272 270 267 264 263 262 261 259 260 259 254 250 244 236
261 261 259 259 260 260 261 263 267 271 275 278 282 285 289 292 293 295 295 295 295 293 292 290 287 284 281 278 275 273 269 266 264 261 258 257 256 256 256 256 254 251 246
261 257 254 255 256 257 259 263 267 271 275 279 284 289 294 296 298 301 302 302 301 300 297 294 292 288 284 280 276 273 270 267 263 260 257 254 252 252 253 253 253 251 251
Height
5912 5911 5910 5908 5907 5906 5904 5904 5903 5902 5901 5899 5897 5896 5894 5892 5890 5889 5887 5886 5884 5883 5881 5880 5879 5878 5878 5877 5877 5876 5876 5875 5875 5875 5874 5874 5874 5874 5874 5874 5874 5874 5874
5907 5906 5905 5904 5903 5901 5900 5899 5897 5897 5896 5895 5893 5891 5889 5888 5886 5885 5883 5882 5881 5879 5877 5876 5875 5874 5873 5873 5872 5872 5872 5871 5871 5871 5871 5870 5870 5870 5870 5870 5870 5870 5870
5901 5901 5900 5899 5897 5896 5894 5893 5892 5891 5890 5889 5888 5887 5885 5883 5881 5880 5878 5877 5876 5875 5873 5872 5871 5869 5868 5867 5867 5867 5867 5866 5866 5866 5866 5866 5866 5866 5866 5866 5866 5866 5866
5894 5894 5893 5892 5891 5890 5888 5887 5886 5885 5884 5883 5882 5881 5879 5878 5876 5874 5872 5871 5870 5869 5868 5867 5866 5865 5863 5862 5862 5861 5861 5861 5861 5861 5861 5861 5861 5861 5861 5862 5862 5862 5862
5886 5885 5885 5884 5882 5882 5881 5879 5878 5877 5877 5876 5875 5874 5873 5871 5870 5868 5866 5865 5864 5863 5862 5861 5860 5859 5858 5857 5856 5855 5855 5855 5855 5855 5855 5856 5856 5856 5856 5856 5857 5857 5857
5877 5876 5875 5874 5873 5872 5872 5871 5870 5869 5868 5867 5867 5867 5866 5865 5863 5861 5859 5858 5857 5856 5855 5853 5853 5852 5851 5850 5850 5849 5849 5849 5848 5849 5849 5850 5850 5850 5850 5851 5851 5851 5852
5868 5867 5866 5864 5863 5862 5862 5861 5861 5860 5860 5859 5859 5859 5859 5858 5856 5854 5852 5850 5849 5848 5847 5846 5844 5844 5843 5843 5842 5842 5842 5841 5841 5842 5842 5843 5843 5844 5844 5845 5845 5845 5846
5857 5857 5856 5854 5853 5852 5852 5852 5852 5851 5851 5851 5851 5851 5851 5851 5849 5847 5845 5843 5841 5839 5838 5837 5836 5835 5834 5834 5835 5834 5834 5834 5834 5834 5834 5835 5836 5837 5837 5838 5838 5839 5839
5847 5846 5844 5843 5842 5842 5842 5842 5843 5843 5843 5843 5843 5843 5843 5843 5841 5840 5837 5835 5832 5830 5829 5827 5827 5826 5825 5825 5825 5826 5826 5825 5825 5826 5826 5827 5828 5829 5830 5831 5831 5832 5832
5837 5834 5833 5832 5832 5832 5832 5833 5834 5835 5835 5835 5835 5835 5834 5833 5832 5832 5830 5827 5824 5821 5820 5818 5818 5817 5816 5816 5815 5816 5816 5816 5817 5817 5817 5818 5819 5820 5821 5823 5823 5824 5825
5826 5825 5823 5823 5822 5822 5823 5825 5826 5826 5827 5827 5827 5827 5826 5825 5823 5822 5821 5819 5815 5813 5811 5810 5809 5808 5807 5807 5806 5806 5806 5807 5807 5808 5808 5808 5809 5810 5812 5813 5815 5816 5817
5816 5815 5814 5813 5813 5813 5814 5816 5817 5818 5819 5819 5819 5818 5817 5816 5814 5813 5812 5810 5808 5805 5803 5801 5800 5799 5798 5797 5797 5796 5797 5797 5798 5798 5799 5799 5799 5800 5802 5803 5805 5807 5808
5804 5803 5803 5803 5803 5804 5806 5808 5809 5810 5810 5811 5811 5810 5809 5808 5806 5804 5803 5802 5800 5798 5796 5794 5792 5791 5789 5788 5788 5787 5787 5787 5788 5788 5789 5789 5790 5791 5792 5793 5795 5797 5799
5793 5792 5793 5793 5795 5796 5797 5799 5800 5801 5802 5802 5802 5801 5800 5799 5797 5796 5795 5794 5792 5791 5789 5787 5785 5783 5781 5780 5779 5778 5777 5777 5777 5778 5778 5779 5779 5780 5781 5783 5784 5786 5789
5781 5781 5782 5783 5784 5786 5787 5789 5791 5792 5793 5793 5792 5792 5791 5790 5789 5788 5787 5786 5785 5784 5782 5780 5778 5776 5774 5772 5770 5769 5768 5767 5767 5768 5768 5768 5769 5770 5771 5772 5773 5775 5778
5769 5770 5772 5773 5774 5776 5778 5780 5781 5782 5783 5783 5783 5783 5783 5782 5781 5780 5779 5778 5777 5776 5774 5772 5771 5769 5766 5764 5762 5760 5759 5758 5757 5757 5758 5758 5758 5759 5760 5762 5763 5765 5768
5756 5758 5761 5763 5765 5766 5768 5770 5772 5773 5774 5774 5775 5774 5774 5774 5772 5772 5771 5769 5768 5767 5766 5765 5763 5761 5759 5757 5754 5752 5750 5749 5748 5748 5748 5748 5748 5749 5750 5752 5753 5756 5759
5745 5747 5750 5752 5755 5757 5759 5761 5763 5764 5765 5766 5766 5766 5765 5765 5764 5763 5762 5761 5760 5759 5757 5756 5754 5753 5751 5749 5747 5745 5743 5741 5739 5739 5738 5738 5739 5740 5741 5743 5744 5747 5750
5735 5737 5740 5743 5745 5748 5751 5753 5754 5755 5756 5757 5757 5757 5757 5756 5755 5754 5753 5752 5751 5750 5748 5747 5745 5744 5742 5741 5739 5738 5736 5734 5732 5730 5730 5730 5730 5731 5732 5734 5736 5739 5742
5727 5729 5731 5734 5737 5739 5742 5744 5746 5747 5748 5749 5749 5748 5748 5747 5746 5745 5744 5743 5742 5740 5739 5737 5736 5734 5733 5732 5731 5730 5728 5727 5725 5724 5723 5723 5723 5723 5725 5726 5728 5731 5734
5719 5722 5724 5726 5729 5732 5734 5736 5738 5739 5740 5740 5740 5740 5739 5738 5737 5736 5735 5734 5732 5731 5729 5727 5726 5724 5723 5723 5722 5721 5720 5719 5718 5717 5716 5716 5716 5717 5718 5719 5720 5723 5726
5713 5715 5718 5720 5723 5725 5727 5729 5730 5731 5732 5732 5732 5732 5731 5730 5729 5727 5726 5724 5722 5721 5719 5717 5715 5714 5713 5712 5712 5711 5711 5710 5710 5709 5709 5709 5709 5710 5711 5712 5714 5716 5718
5709 5710 5712 5714 5717 5719 5720 5722 5724 5724 5725 5725 5725 5724 5723 5722 5721 5720 5717 5715 5713 5711 5709 5707 5705 5703 5702 5701 5701 5700 5700 5700 5700 5700 5700 5701 5701 5702 5703 5705 5706 5709 5711
5705 5706 5708 5710 5711 5713 5715 5716 5717 5718 5718 5718 5718 5717 5716 5715 5713 5712 5710 5707 5705 5702 5699 5696 5694 5692 5690 5689 5689 5689 5688 5689 5689 5690 5691 5692 5693 5694 5696 5697 5699 5701 5704
5701 5703 5704 5705 5706 5708 5709 5711 5712 5712 5712 5713 5712 5711 5710 5709 5707 5705 5702 5699 5696 5692 5689 5687 5684 5682 5680 5678 5678 5677 5677 5678 5679 5680 5681 5683 5684 5685 5687 5689 5690 5692 5695
5698 5699 5700 5701 5702 5704 5705 5706 5707 5707 5708 5708 5707 5706 5704 5702 5700 5697 5694 5691 5687 5684 5680 5677 5674 5672 5670 5668 5667 5667 5666 5667 5667 5669 5670 5673 5674 5676 5678 5680 5682 5684 5686